This is the latest recevied weather packets stored in our database for station/object EA5BZ. If no packets are shown the sender has not sent any weather packets the latest 10 day(s).
| Time | Temp. | Humidity | Pressure | Rain* | Wind** | Luminosity | Snow |
|---|---|---|---|---|---|---|---|
| 1777744216 | 18.33° C | 84% | 1017.7 hPa | 0 mm | - | - | - |
| 1777743616 | 18.33° C | 84% | 1017.6 hPa | 0 mm | - | - | - |
| 1777742716 | 18.33° C | 84% | 1017.7 hPa | 0 mm | - | - | - |
| 1777740936 | 18.89° C | 83% | 1018.1 hPa | 0 mm | - | - | - |
| 1777739716 | 18.89° C | 82% | 1018 hPa | 0 mm | - | - | - |
| 1777739416 | 18.89° C | 81% | 1018 hPa | 0 mm | - | - | - |
| 1777738516 | 18.89° C | 81% | 1018.3 hPa | 0 mm | - | - | - |
| 1777737356 | 19.44° C | 80% | 1018.6 hPa | 0 mm | - | - | - |
| 1777736416 | 19.44° C | 79% | 1018.7 hPa | 0 mm | - | - | - |
| 1777735536 | 19.44° C | 79% | 1018.8 hPa | 0 mm | - | - | - |
| 1777732516 | 19.44° C | 80% | 1019.5 hPa | 0 mm | - | - | - |
| 1777731916 | 19.44° C | 81% | 1019.7 hPa | 0 mm | - | - | - |
| 1777731336 | 19.44° C | 81% | 1019.6 hPa | 0 mm | - | - | - |
| 1777728316 | 19.44° C | 81% | 1020 hPa | 0 mm | - | - | - |
| 1777727416 | 20° C | 79% | 1020.4 hPa | 0 mm | - | - | - |
| 1777724116 | 20° C | 78% | 1020.7 hPa | 0 mm | - | - | - |
| 1777723816 | 20° C | 78% | 1020.7 hPa | 0 mm | - | - | - |
| 1777720816 | 20° C | 78% | 1020.8 hPa | 0 mm | - | - | - |
| 1777720516 | 20° C | 78% | 1021 hPa | 0 mm | - | - | - |
| 1777715117 | 19.44° C | 78% | 1021.6 hPa | 0 mm | - | - | - |
| 1777713617 | 19.44° C | 79% | 1021.8 hPa | 0 mm | - | - | - |
| 1777713317 | 19.44° C | 79% | 1021.9 hPa | 0 mm | - | - | - |
| 1777711537 | 19.44° C | 79% | 1021.7 hPa | 0 mm | - | - | - |
| 1777710917 | 18.89° C | 80% | 1021.6 hPa | 0 mm | - | - | - |
| 1777709117 | 18.89° C | 81% | 1021.5 hPa | 0 mm | - | - | - |
* Rain latest hour (hover to see other rain measurements)
** Current wind speed in m/s (hover to see current wind gust speed)